Preview of NWS' New Version of Forecast
This preview is not operational and should not be used for support decisions.

Regional Weather Roundup (RWR)

Issued by National Weather Service (NWS)

                            
000
ASCA42 TJSJ 230510
RWRPR 
PUERTO RICO/U.S. VIRGIN ISLANDS HOURLY WEATHER ROUNDUP
NATIONAL WEATHER SERVICE SAN JUAN PR
100 AM AST THU MAY 23 2019

PRZ001>002-007>008-010-230600-
PUERTO RICO
  
CITY           SKY/WX    TMP DP  RH WIND       PRES   REMARKS
SAN JUAN LMM   PTCLDY    81  73  78 E5        29.97F                  
$$

VIZ001>002-230600-
U.S. VIRGIN ISLANDS
  
CITY           SKY/WX    TMP DP  RH WIND       PRES   REMARKS
CHARLOTTE AMA  PTCLDY    81  72  74 E6        29.96F                  
CHRISTIANSTED  LGT RAIN  79  73  83 NE5       29.97F                  
$$

HOURLY WEATHER ROUNDUP FOR THE NEWS MEDIA
  
CITY           SKY/WX    TMP DP  RH WIND       PRES   REMARKS
ORLANDO        FAIR      74  66  76 E7        30.17S                  
NEW YORK       CLOUDY    62  49  62 SW8       30.22F                  
NEWARK         CLOUDY    65  45  48 SW10      30.20F                  
CHICAGO        LGT RAIN  70  65  84 S13G21    29.89R                  
HARTFORD       FAIR      47  42  83 SW3       30.28R                  
BOSTON         MOCLDY    54  41  61 SW13      30.26R                  
DALLAS         CLOUDY    82  72  71 SE13G18   29.87R                  
PHILADELPHIA   FAIR      63  49  60 S8        30.23F                  
LOS ANGELES    PTCLDY    59  49  69 VRB6      29.81R                  
WASHINGTON DC  MOCLDY    62  49  62 S7        30.23S